Location: Cabeza de los Veneras
(40.2000°N, 5.2000°W)
Time: 16:14:42
(UTC+00:00)

Cosmos 1241 Rocket - Pass Details

Date: 18 April 2024
Orbit: 939 x 1007 km, 65.8° (Epoch: 28 May)

Event Time Altitude Azimuth Distance (km) Brightness Sun altitude
Rises 20:42:16 0° 328° (NNW) 3,636 8.7 -18.1°
Reaches altitude 10° 20:44:48 10° 328° (NNW) 2,696 7.8 -18.5°
Maximum altitude 20:51:07 84° 241° (WSW) 980 4.5 -19.5°
Enters shadow 20:54:31 30° 155° (SSE) 1,677 5.3 -20.0°
